User: anonymous   Login
Location: Unspecified
(0.0000°N, 0.0000°E)
Time: 16:38:21
(UTC+00:00)
Language:

Gonets-D1 - Orbit

View from above orbital plane
View from above orbital plane
View from above satellite
View from above satellite

Ground track
Ground track

The orbit data is extracted from the following two-line orbital elements,

1 23787U 96009A   17204.91042141 +.00000046 +00000-0 +19620-3 0  9998
2 23787 082.5750 219.9876 0009548 224.3965 135.6364 12.64031459988654
Epoch (UTC): 23 July 2017 21:51:00
Eccentricity: 0.0009548
inclination: 82.5750°
perigee height: 1399 km
apogee height: 1414 km
right ascension of ascending node: 219.9876°
argument of perigee: 224.3965°
revolutions per day: 12.64031459
mean anomaly at epoch: 135.6364°
orbit number at epoch: 98865

The dashed part of the orbit path shows where the satellite is in the earth's shadow,  

DLR